Location: Evergreen Manor
(41.4083°N, 81.4939°W)
Time: 07:40:20
(UTC+00:00)

Meteor 2-13 Rocket - Pass Details

Date: 11 December 2019
Orbit: 936 x 957 km, 82.5° (Epoch: 28 January)

Event Time Altitude Azimuth Distance (km) Brightness Sun altitude
Rises 00:23:42 0° 189° (S) 3,580 7.7 -26.8°
Reaches altitude 10° 00:26:10 10° 191° (S) 2,641 7.0 -27.2°
Maximum altitude 00:32:12 80° 278° (W) 960 4.4 -28.4°
Enters shadow 00:34:40 39° 359° (N) 1,392 5.2 -28.8°
